Alva, OK

12:17 PM CDT on July 26, 2017 (GMT -0500)
Alva Regional

Weather History for KAVK - September, 2013

Change the Weather History Date:

Thursday, September 26, 2013

  Actual Average Record
Temperature  
Mean Temperature 80 °F -  
Max Temperature 96 °F 82 °F 97 °F (1953)
Min Temperature 64 °F 55 °F 41 °F (1949)
Cooling Degree Days 15    
Growing Degree Days 30 (Base 50)    
Moisture  
Dew Point 53 °F    
Average Humidity 42    
Maximum Humidity 60    
Minimum Humidity 23    
Precipitation  
Precipitation 0.00 in - - ()
Sea Level Pressure  
Sea Level Pressure 29.74 in    
Wind  
Wind Speed 19 mph (South)    
Max Wind Speed 34 mph    
Max Gust Speed 40 mph    
Visibility 10 miles    
Events      
Averages and records for this station are not official NWS values.
T = Trace of Precipitation, MM = Missing Value Source: NWS Daily Summary

Daily Weather History Graph

Daily Weather History Graph

Search for Another Location

Airport or City:

Trip Planner

Search our weather history database for the weather conditions in past years. The results will help you decide how hot, cold, wet, or windy it might be!

Date:

Astronomy

Sep. 26, 2013 Rise Set
Actual Time 7:26 AM CDT 7:25 PM CDT
Civil Twilight 7:00 AM CDT 7:50 PM CDT
Nautical Twilight 6:30 AM CDT 8:20 PM CDT
Astronomical Twilight 5:59 AM CDT 8:51 PM CDT
Moon No Moon Rise 2:11 PM CDT
Length of Visible Light 12h 50m
Length of Day
11h 59m
Waning Gibbous, 54% of the Moon is Illuminated
Sep 26
Waning Gibbous
Sep 26
Last Quarter
Oct 4
New
Oct 11
First Quarter
Oct 18
Full

Hourly Weather History & Observations

Time (CDT) Temp. Heat Index Dew Point Humidity Pressure Visibility Wind Dir Wind Speed Gust Speed Precip Events Conditions
12:15 AM 69.8 °F - 50.0 °F 49% 29.73 in 10.0 mi SSE 16.1 mph - N/A   Clear
12:35 AM 69.8 °F - 50.0 °F 49% 29.74 in 10.0 mi SSE 16.1 mph 23.0 mph N/A   Clear
12:55 AM 69.8 °F - 50.0 °F 49% 29.73 in 10.0 mi SSE 16.1 mph - N/A   Clear
1:15 AM 69.8 °F - 50.0 °F 49% 29.73 in 10.0 mi SSE 17.3 mph - N/A   Clear
1:35 AM 68.0 °F - 50.0 °F 52% 29.73 in 10.0 mi SSE 16.1 mph - N/A   Clear
1:55 AM 68.0 °F - 50.0 °F 52% 29.73 in 10.0 mi SSE 16.1 mph - N/A   Clear
2:15 AM 68.0 °F - 50.0 °F 52% 29.72 in 10.0 mi SSE 17.3 mph 23.0 mph N/A   Clear
2:35 AM 68.0 °F - 50.0 °F 52% 29.73 in 10.0 mi SSE 17.3 mph - N/A   Clear
2:55 AM 68.0 °F - 50.0 °F 52% 29.73 in 10.0 mi SSE 16.1 mph - N/A   Clear
3:15 AM 68.0 °F - 50.0 °F 52% 29.72 in 10.0 mi SSE 18.4 mph - N/A   Clear
3:35 AM 68.0 °F - 50.0 °F 52% 29.72 in 10.0 mi SSE 17.3 mph - N/A   Clear
3:55 AM 66.2 °F - 50.0 °F 56% 29.72 in 10.0 mi SSE 17.3 mph - N/A   Clear
4:15 AM 66.2 °F - 50.0 °F 56% 29.72 in 10.0 mi SSE 18.4 mph - N/A   Clear
4:35 AM 66.2 °F - 50.0 °F 56% 29.72 in 10.0 mi SSE 16.1 mph - N/A   Clear
4:55 AM 66.2 °F - 50.0 °F 56% 29.72 in 10.0 mi South 13.8 mph - N/A   Clear
5:15 AM 66.2 °F - 48.2 °F 52% 29.72 in 10.0 mi South 15.0 mph - N/A   Clear
5:35 AM 66.2 °F - 50.0 °F 56% 29.72 in 10.0 mi South 15.0 mph - N/A   Clear
5:55 AM 64.4 °F - 50.0 °F 59% 29.72 in 10.0 mi South 13.8 mph - N/A   Clear
6:15 AM 64.4 °F - 50.0 °F 59% 29.73 in 10.0 mi South 11.5 mph - N/A   Clear
6:35 AM 64.4 °F - 50.0 °F 59% 29.74 in 10.0 mi South 13.8 mph - N/A   Clear
6:55 AM 64.4 °F - 50.0 °F 59% 29.74 in 10.0 mi South 12.7 mph - N/A   Clear
7:15 AM 64.4 °F - 50.0 °F 59% 29.75 in 10.0 mi South 11.5 mph - N/A   Clear
7:35 AM 64.4 °F - 50.0 °F 59% 29.75 in 10.0 mi South 11.5 mph - N/A   Partly Cloudy
7:55 AM 64.4 °F - 50.0 °F 59% 29.75 in 10.0 mi South 12.7 mph - N/A   Partly Cloudy
8:15 AM 66.2 °F - 50.0 °F 56% 29.76 in 10.0 mi South 13.8 mph - N/A   Clear
8:35 AM 66.2 °F - 51.8 °F 60% 29.76 in 10.0 mi South 16.1 mph - N/A   Clear
8:55 AM 66.2 °F - 51.8 °F 60% 29.77 in 10.0 mi South 15.0 mph - N/A   Clear
9:15 AM 71.6 °F - 53.6 °F 53% 29.77 in 10.0 mi South 18.4 mph - N/A   Clear
9:35 AM 73.4 °F - 55.4 °F 53% 29.77 in 10.0 mi South 21.9 mph 26.5 mph N/A   Clear
9:55 AM 75.2 °F - 55.4 °F 50% 29.77 in 10.0 mi South 20.7 mph - N/A   Clear
10:15 AM 77.0 °F - 55.4 °F 47% 29.77 in 10.0 mi South 19.6 mph - N/A   Clear
10:35 AM 80.6 °F 80.8 °F 57.2 °F 45% 29.77 in 10.0 mi South 18.4 mph - N/A   Clear
10:55 AM 84.2 °F 83.5 °F 57.2 °F 40% 29.77 in 10.0 mi South 24.2 mph 29.9 mph N/A   Clear
11:15 AM 86.0 °F 84.5 °F 55.4 °F 35% 29.77 in 10.0 mi South 23.0 mph - N/A   Clear
11:35 AM 86.0 °F 84.5 °F 55.4 °F 35% 29.77 in 10.0 mi South 23.0 mph - N/A   Clear
11:55 AM 89.6 °F 87.7 °F 55.4 °F 31% 29.76 in 10.0 mi South 24.2 mph 29.9 mph N/A   Clear
12:15 PM 91.4 °F 89.4 °F 55.4 °F 29% 29.76 in 10.0 mi South 25.3 mph 32.2 mph N/A   Clear
12:35 PM 91.4 °F 89.4 °F 55.4 °F 29% 29.76 in 10.0 mi South 25.3 mph 33.4 mph N/A   Clear
12:55 PM 91.4 °F 89.4 °F 55.4 °F 29% 29.75 in 10.0 mi South 25.3 mph 33.4 mph N/A   Clear
1:15 PM 93.2 °F 91.3 °F 55.4 °F 28% 29.74 in 10.0 mi South 26.5 mph 34.5 mph N/A   Clear
1:35 PM 93.2 °F 90.8 °F 53.6 °F 26% 29.73 in 9.0 mi South 29.9 mph 36.8 mph N/A   Clear
1:55 PM 95.0 °F 92.7 °F 53.6 °F 25% 29.73 in 9.0 mi South 34.5 mph 40.3 mph N/A   Clear
2:15 PM 95.0 °F 92.7 °F 53.6 °F 25% 29.73 in 10.0 mi South 33.4 mph 39.1 mph N/A   Clear
2:35 PM 95.0 °F 92.7 °F 53.6 °F 25% 29.72 in 10.0 mi South 32.2 mph 39.1 mph N/A   Clear
2:55 PM 95.0 °F 92.7 °F 53.6 °F 25% 29.72 in 10.0 mi South 28.8 mph 36.8 mph N/A   Clear
3:15 PM 95.0 °F 92.7 °F 53.6 °F 25% 29.72 in 10.0 mi South 28.8 mph 38.0 mph N/A   Clear
3:35 PM 95.0 °F 92.7 °F 53.6 °F 25% 29.72 in 10.0 mi South 27.6 mph 33.4 mph N/A   Clear
3:55 PM 95.0 °F 92.7 °F 53.6 °F 25% 29.71 in 10.0 mi South 27.6 mph 38.0 mph N/A   Clear
4:15 PM 96.8 °F 94.4 °F 53.6 °F 23% 29.72 in 9.0 mi South 29.9 mph 36.8 mph N/A   Clear
4:35 PM 95.0 °F 92.7 °F 53.6 °F 25% 29.71 in 10.0 mi SSW 31.1 mph 39.1 mph N/A   Clear
4:55 PM 95.0 °F 92.7 °F 53.6 °F 25% 29.72 in 10.0 mi South 27.6 mph 36.8 mph N/A   Clear
5:15 PM 95.0 °F 92.7 °F 53.6 °F 25% 29.71 in 10.0 mi South 29.9 mph 36.8 mph N/A   Clear
5:35 PM 95.0 °F 92.7 °F 53.6 °F 25% 29.71 in 10.0 mi South 32.2 mph 36.8 mph N/A   Clear
5:55 PM 93.2 °F 90.8 °F 53.6 °F 26% 29.72 in 10.0 mi South 25.3 mph 34.5 mph N/A   Clear
6:15 PM 93.2 °F 90.8 °F 53.6 °F 26% 29.72 in 10.0 mi South 29.9 mph 38.0 mph N/A   Clear
6:35 PM 91.4 °F 89.1 °F 53.6 °F 28% 29.72 in 10.0 mi South 28.8 mph 35.7 mph N/A   Clear
6:55 PM 89.6 °F 87.3 °F 53.6 °F 29% 29.73 in 10.0 mi South 26.5 mph 33.4 mph N/A   Clear
7:15 PM 87.8 °F 85.7 °F 53.6 °F 31% 29.73 in 10.0 mi South 23.0 mph 29.9 mph N/A   Clear
7:35 PM 86.0 °F 84.2 °F 53.6 °F 33% 29.74 in 10.0 mi South 21.9 mph - N/A   Clear
7:55 PM 86.0 °F 84.5 °F 55.4 °F 35% 29.74 in 10.0 mi South 20.7 mph 27.6 mph N/A   Clear
8:15 PM 84.2 °F 83.0 °F 55.4 °F 37% 29.74 in 10.0 mi South 21.9 mph 27.6 mph N/A   Clear
8:35 PM 84.2 °F 83.0 °F 55.4 °F 37% 29.75 in 10.0 mi South 23.0 mph - N/A   Clear
8:55 PM 84.2 °F 83.0 °F 55.4 °F 37% 29.75 in 10.0 mi South 24.2 mph 29.9 mph N/A   Clear
9:15 PM 82.4 °F 81.4 °F 53.6 °F 37% 29.76 in 10.0 mi South 20.7 mph 28.8 mph N/A   Clear
9:35 PM 82.4 °F 81.7 °F 55.4 °F 39% 29.77 in 10.0 mi South 19.6 mph - N/A   Clear
9:55 PM 80.6 °F 80.5 °F 55.4 °F 42% 29.77 in 10.0 mi South 19.6 mph - N/A   Clear
10:15 PM 80.6 °F 80.5 °F 55.4 °F 42% 29.78 in 10.0 mi South 19.6 mph 24.2 mph N/A   Clear
10:35 PM 80.6 °F 80.5 °F 55.4 °F 42% 29.78 in 10.0 mi South 21.9 mph - N/A   Clear
10:55 PM 78.8 °F - 55.4 °F 44% 29.78 in 10.0 mi South 24.2 mph - N/A   Clear
11:15 PM 78.8 °F - 55.4 °F 44% 29.79 in 10.0 mi South 23.0 mph - N/A   Clear
11:35 PM 78.8 °F - 55.4 °F 44% 29.79 in 10.0 mi South 23.0 mph 31.1 mph N/A   Clear
11:55 PM 77.0 °F - 55.4 °F 47% 29.79 in 10.0 mi South 21.9 mph - N/A   Clear